Weather History for Austin Bergstrom, TX

Change the Weather History Date:

Tuesday, January 29, 2013

  Actual Average Record
Temperature  
Mean Temperature 72 °F 50 °F  
Max Temperature 85 °F 63 °F 85 °F (2013)
Min Temperature 58 °F 37 °F 17 °F (1951)
Degree Days  
Heating Degree Days 0 15  
Month to date heating degree days 410 462  
Since 1 July heating degree days 1021 1209  
Cooling Degree Days 7 0  
Month to date cooling degree days 18 0  
Year to date cooling degree days 18 0  
Growing Degree Days 21 (Base 50)    
Moisture  
Dew Point 55 °F    
Average Humidity 56    
Maximum Humidity 84    
Minimum Humidity 27    
Precipitation  
Precipitation 0.02 in 0.07 in 1.05 in (2010)
Month to date precipitation 2.71 2.12  
Year to date precipitation 2.71 2.12  
Snow  
Snow 0.00 in - - ()
Month to date snowfall T  
Since 1 July snowfall T  
Snow Depth 0.00 in    
Sea Level Pressure  
Sea Level Pressure 29.70 in    
Wind  
Wind Speed 16 mph (SSW)    
Max Wind Speed 29 mph    
Max Gust Speed 43 mph    
Visibility 10 miles    
Events Rain , Thunderstorm    
T = Trace of Precipitation, MM = Missing Value Source: NWS Daily Summary

Daily Weather History Graph

Daily Weather History Graph

Search for Another Location

Airport:

Trip Planner

Search our weather history database for the weather conditions in past years. The results will help you decide how hot, cold, wet, or windy it might be!

Date:

Astronomy

Jan. 29, 2013 Rise Set
Actual Time 7:22 AM CST 6:05 PM CST
Civil Twilight 6:57 AM CST 6:30 PM CST
Nautical Twilight 6:28 AM CST 6:59 PM CST
Astronomical Twilight 6:00 AM CST 7:27 PM CST
Moon 8:45 PM CST (1/29) 8:35 AM CST (1/29)
Length of Visible Light 11h 33m
Length of Day
10h 42m
Waning Gibbous, 93% of the Moon is Illuminated
Jan 29
Waning Gibbous
Feb 3
Last Quarter
Feb 10
New
Feb 17
First Quarter
Feb 25
Full

Hourly Weather History & Observations

Time (CST) Temp. Heat Index Dew Point Humidity Pressure Visibility Wind Dir Wind Speed Gust Speed Precip Events Conditions
12:53 AM 71.1 °F - 66.0 °F 84% 29.84 in 10.0 mi SSE 15.0 mph 20.7 mph 0.00 in   Light Drizzle
1:23 AM 71.6 °F - 66.2 °F 83% 29.87 in 10.0 mi South 13.8 mph 21.9 mph 0.00 in   Light Drizzle
1:53 AM 71.1 °F - 66.9 °F 87% 29.84 in 10.0 mi South 12.7 mph - 0.00 in   Light Drizzle
2:50 AM 71.6 °F - 66.2 °F 83% 29.84 in 10.0 mi South 16.1 mph 26.5 mph 0.00 in   Overcast
2:53 AM 71.1 °F - 66.0 °F 84% 29.82 in 10.0 mi South 12.7 mph 26.5 mph 0.00 in   Overcast
3:53 AM 72.0 °F - 66.0 °F 81% 29.81 in 10.0 mi South 15.0 mph 25.3 mph N/A   Overcast
4:53 AM 72.0 °F - 64.9 °F 78% 29.79 in 10.0 mi South 17.3 mph - N/A   Overcast
5:53 AM 71.6 °F - 64.4 °F 78% 29.80 in 10.0 mi South 15.0 mph 23.0 mph N/A   Light Drizzle
6:53 AM 71.1 °F - 64.9 °F 81% 29.76 in 10.0 mi South 12.7 mph - 0.00 in   Overcast
7:53 AM 71.1 °F - 64.9 °F 81% 29.74 in 10.0 mi SSE 16.1 mph 21.9 mph N/A   Overcast
8:08 AM 71.6 °F - 64.4 °F 78% 29.76 in 10.0 mi SSE 11.5 mph - N/A   Overcast
8:53 AM 72.0 °F - 66.0 °F 81% 29.73 in 10.0 mi SSE 15.0 mph 21.9 mph N/A   Overcast
9:53 AM 73.0 °F - 64.9 °F 76% 29.70 in 10.0 mi SSE 18.4 mph 26.5 mph N/A   Overcast
10:53 AM 73.0 °F - 64.9 °F 76% 29.72 in 10.0 mi South 18.4 mph 24.2 mph N/A   Overcast
11:20 AM 75.2 °F - 64.4 °F 69% 29.71 in 10.0 mi South 20.7 mph 26.5 mph N/A   Mostly Cloudy
11:53 AM 75.9 °F - 64.9 °F 69% 29.67 in 10.0 mi South 19.6 mph 28.8 mph N/A   Overcast
12:34 PM 78.8 °F - 64.4 °F 61% 29.63 in 10.0 mi South 20.7 mph 31.1 mph N/A   Mostly Cloudy
12:53 PM 79.0 °F - 64.0 °F 60% 29.59 in 10.0 mi South 21.9 mph 33.4 mph N/A   Mostly Cloudy
1:53 PM 82.9 °F 84.4 °F 64.0 °F 53% 29.53 in 10.0 mi South 21.9 mph 31.1 mph N/A   Mostly Cloudy
2:53 PM 82.9 °F 83.3 °F 61.0 °F 47% 29.51 in 10.0 mi South 21.9 mph 28.8 mph N/A   Mostly Cloudy
3:53 PM 84.0 °F 83.5 °F 57.9 °F 41% 29.49 in 10.0 mi SSW 17.3 mph 26.5 mph N/A   Mostly Cloudy
4:53 PM 84.0 °F 83.3 °F 57.0 °F 40% 29.48 in 10.0 mi South 20.7 mph 24.2 mph N/A   Mostly Cloudy
5:32 PM 73.4 °F - 44.6 °F 36% 29.57 in 10.0 mi NW 20.7 mph 34.5 mph N/A   Mostly Cloudy
5:53 PM 70.0 °F - 43.0 °F 38% 29.56 in 10.0 mi NW 17.3 mph 38.0 mph N/A   Mostly Cloudy
6:16 PM 64.4 °F - 46.4 °F 52% 29.59 in 10.0 mi NW 16.1 mph 41.4 mph 0.01 in Rain , Thunderstorm Light Thunderstorms and Rain
6:53 PM 62.1 °F - 42.1 °F 48% 29.62 in 10.0 mi NW 8.1 mph 19.6 mph 0.02 in   Mostly Cloudy
7:53 PM 63.0 °F - 39.0 °F 41% 29.68 in 10.0 mi NNW 9.2 mph 17.3 mph N/A   Mostly Cloudy
8:53 PM 63.0 °F - 35.1 °F 35% 29.72 in 10.0 mi NNW 10.4 mph 18.4 mph N/A   Overcast
9:53 PM 62.1 °F - 28.9 °F 29% 29.75 in 10.0 mi NW 12.7 mph 20.7 mph N/A   Scattered Clouds
10:53 PM 59.0 °F - 27.0 °F 29% 29.78 in 10.0 mi NW 9.2 mph - N/A   Partly Cloudy
11:53 PM 59.0 °F - 21.0 °F 23% 29.80 in 10.0 mi NW 16.1 mph 25.3 mph N/A   Partly Cloudy